Regional Weather Roundup
Issued by NWS Charleston, WV

Home | Current Version | Previous Version | Graphics & Text | Print | Product List | Glossary On
Versions: 1 2 3 4 5 6 7 8 9 10 11 12 13 14 15 16 17 18 19 20 21 22 23 24 25 26 27 28 29 30 31 32 33 34 35 36 37 38 39 40 41 42 43 44 45 46 47 48 49 50
000
ASUS41 KRLX 171210
RWRRLX
West Virginia Regional Weather Roundup
National Weather Service Charleston WV
700 AM EST TUE JAN 17 2017

Note: "fair" indicates few or no clouds below 12,000 feet with no
significant weather and/or obstructions to visibility.

WVZ003-171300-
Northern Panhandle of West Virginia

CITY           SKY/WX    TMP DP  RH WIND       PRES   REMARKS
WHEELING       RAIN      52  49  89 S10       29.99F FOG
$$

WVZ009-171300-
Northwest West Virginia

CITY           SKY/WX    TMP DP  RH WIND       PRES   REMARKS
PARKERSBURG    LGT RAIN  55  52  89 S9        30.04F
$$

WVZ006-171300-
Western West Virginia

CITY           SKY/WX    TMP DP  RH WIND       PRES   REMARKS
HUNTINGTON     LGT RAIN  56  53  90 S14       30.01F FOG
$$

WVZ015-171300-
West Central West Virginia

CITY           SKY/WX    TMP DP  RH WIND       PRES   REMARKS
CHARLESTON     RAIN      50  49  96 CALM      30.05F FOG
$$

WVZ022-031-171300-
North Central West Virginia

CITY           SKY/WX    TMP DP  RH WIND       PRES   REMARKS
CLARKSBURG     RAIN      53  51  93 S9        30.07R FOG
MORGANTOWN     CLOUDY    50  45  83 S7        30.05R
$$

WVZ025-035-042-045-171300-
Southern West Virginia

CITY           SKY/WX    TMP DP  RH WIND       PRES   REMARKS
BECKLEY        LGT RAIN  49  47  93 E5        30.13S
LOGAN          DRIZZLE   54  52  94 S7        30.07F
BLUEFIELD      LGT RAIN  52  45  77 W8        30.15R
LEWISBURG      LGT RAIN  44  43  99 CALM      30.15S
$$

WVZ047-171300-
Northern Mountains of West Virginia

CITY           SKY/WX    TMP DP  RH WIND       PRES   REMARKS
ELKINS         RAIN      47  45  93 S6        30.11S FOG
$$

WVZ052-171300-
Eastern Panhandle of West Virginia

CITY           SKY/WX    TMP DP  RH WIND       PRES   REMARKS
MARTINSBURG    FOG       35  34  96 CALM      30.16S VSB 1/2
PETERSBURG     DRIZZLE   40  37  90 CALM      30.14S
$$



USA.gov is the U.S. government's official web portal to all federal, state and local government web resources and services.